Home   Weather   Birmingham   Past weeks

Flag for USA Past Weather in Birmingham, Alabama, USA — Yesterday and Last 2 Weeks

Now
84 °F

Clear.


Feels Like: 86 °F
Forecast: 74 / 93 °F
Wind: 3 mph from Northeast

Location: Birmingham International Airport

Current Time: Aug 30, 2016 at 9:33:21 PM

Latest Report: Aug 30, 2016 at 8:53 PM


Visibility: 10 mi

Pressure: 29.97 "Hg

Humidity: 53%

Dew Point: 65 °F

Location of BirminghamLocation

Past Weather in Birmingham — Graph

°F

Birmingham Temperature Yesterday

Maximum temperature yesterday: 94 °F (at 2:53 PM)
Minimum temperature yesterday: 75 °F (at 5:53 AM)
Average temperature yesterday: 84 °F

High & Low Weather Summary for the Past Weeks

 TemperatureHumidityPressure
High94 °F (Aug 25, 4:53 PM)97% (Aug 19, 3:53 AM)30.26 "Hg (Aug 19, 3:53 AM)
Low71 °F (Aug 23, 3:53 AM)32% (Aug 30, 4:53 PM)29.88 "Hg (Aug 20, 3:53 PM)
Average82 °F73%30.08 "Hg
* Reported Aug 15 7:53 PM — Aug 30 7:53 PM, Birmingham, Weather by CustomWeather, © 2016

Note: Actual official high and low records may vary slightly from our data, if they occured in-between our weather recording intervals... More about our weather records

Advertising

Birmingham Weather History for the Previous 24 Hours

Scroll right to see more
 ConditionsComfort  
Time TempWeatherWind HumidityBarometerVisibility
7:53 PM
Tue, Aug 30
86 °FSunny.3 mph48%29.95 "Hg10 mi
6:53 PM90 °FPassing clouds.7 mph41%29.95 "Hg10 mi
5:53 PM93 °FPassing clouds.7 mph34%29.95 "Hg10 mi
4:53 PM94 °FPassing clouds.12 mph32%29.96 "Hg10 mi
3:53 PM94 °FPassing clouds.6 mph33%29.97 "Hg10 mi
2:53 PM94 °FPassing clouds.8 mph36%29.99 "Hg10 mi
1:53 PM92 °FPassing clouds.6 mph38%30.02 "Hg10 mi
12:53 PM90 °FPassing clouds.8 mph41%30.04 "Hg10 mi
11:53 AM89 °FPassing clouds.3 mph45%30.06 "Hg10 mi
10:53 AM88 °FPassing clouds.10 mph52%30.08 "Hg10 mi
9:53 AM84 °FPartly sunny.7 mph65%30.08 "Hg10 mi
8:53 AM82 °FSunny.6 mph65%30.08 "Hg10 mi
7:53 AM79 °FSunny.5 mph69%30.08 "Hg10 mi
6:53 AM76 °FClear.3 mph74%30.07 "Hg10 mi
5:53 AM77 °FClear.5 mph71%30.04 "Hg10 mi
4:53 AM77 °FClear.No wind71%30.03 "Hg10 mi
3:53 AM79 °FClear.5 mph67%30.03 "Hg10 mi
2:53 AM79 °FClear.3 mph67%30.04 "Hg10 mi
1:53 AM79 °FClear.3 mph69%30.04 "Hg10 mi
12:53 AM80 °FClear.5 mph67%30.04 "Hg10 mi
11:53 PM
Mon, Aug 29
81 °FClear.5 mph67%30.05 "Hg10 mi
10:53 PM82 °FClear.3 mph63%30.06 "Hg10 mi
9:53 PM83 °FClear.6 mph63%30.06 "Hg10 mi
Weather by CustomWeather, © 2016

See weather overviewHow to use our weather pages